User: anonymous   Login
Location: Olsztyn
(53.7767°N, 20.4765°E)
Time: 10:54:04
(UTC+02:00)
Language:

Transit 2A Rocket - Orbit

View from above orbital plane
View from above orbital plane
View from above satellite
View from above satellite

Ground track
Ground track

The orbit data is extracted from the following two-line orbital elements,

1 00047U 60007C   24196.90182109  .00001069  00000-0  25179-3 0  9999
2 00047  66.6651 132.1642 0230422 292.8321  64.8597 14.43650988349364
Epoch (UTC): 14 July 2024 21:38:37
Eccentricity: 0.0230422
inclination: 66.6651°
perigee height: 582 km
apogee height: 910 km
right ascension of ascending node: 132.1642°
argument of perigee: 292.8321°
revolutions per day: 14.43650988
mean anomaly at epoch: 64.8597°
orbit number at epoch: 34936

The dashed part of the orbit path shows where the satellite is in the earth's shadow,  

DLR